Home > Weather > Tabatinga > Past weeks

Flag for Brazil Weather for the Past 2 Weeks in Tabatinga, Amazonas, Brazil

Now
75 °F

Low clouds.


Feels Like: 73 °F
Forecast: 75 / 82 °F
Wind: No wind

Location: Leticia / Vasquez Cobo

Current Time: Feb 10, 2016 at 5:48:23 AM

Latest Report: Feb 10, 2016 at 5:00 AM


Visibility: N/A

Pressure: 29.87 "Hg

Humidity: 100%

Dew point: 75 °F

Location of TabatingaLocation

Historic Weather in Tabatinga — Graph

°F

Tabatinga Temperature Yesterday

Maximum temperature yesterday: 90 °F (at 12:00 PM)
Minimum temperature yesterday: 75 °F (at 2:00 AM)
Average temperature yesterday: 78 °F

High & Low Weather Summary for the Past Weeks

 TemperatureHumidityPressure
High95 °F (Jan 26, 3:00 PM)100% (Jan 27, 5:00 PM)29.96 "Hg (Jan 27, 5:00 PM)
Low72 °F (Feb 3, 4:00 AM)63% (Jan 27, 1:00 PM)29.70 "Hg (Jan 30, 5:00 PM)
Average80 °F89%29.83 "Hg
* Reported Jan 26 4:00 AM — Feb 10 4:00 AM, Tabatinga, Weather by CustomWeather, © 2016

Note: Actual official high and low records may vary slightly from our data, if they occured in-between our weather recording intervals... More about our weather records

Advertising

Tabatinga Weather History for the Previous 24 Hours

 ConditionsComfort  
Time TempWeatherWind HumidityBarometerVisibility
4:00 AM
Wed, Feb 10
75 °FLow clouds.3 mph100%29.86 "HgN/A
3:00 AM77 °FPartly cloudy.No wind94%29.86 "HgN/A
2:00 AM77 °FPartly cloudy.2 mph94%29.87 "HgN/A
1:00 AM77 °FPassing clouds.2 mph94%29.88 "HgN/A
12:00 AM77 °FPassing clouds.No wind94%29.89 "HgN/A
11:00 PM
Tue, Feb 9
77 °FPartly cloudy.2 mph94%29.91 "HgN/A
10:00 PM77 °FPassing clouds.No wind94%29.91 "HgN/A
9:00 PM77 °FOvercast.No wind94%29.90 "HgN/A
8:00 PM77 °FMostly cloudy.No wind94%29.86 "HgN/A
7:00 PM77 °FMostly cloudy.No wind94%29.82 "HgN/A
6:00 PM77 °FDrizzle. More clouds than sun.No wind94%29.84 "HgN/A
5:00 PM77 °FLow clouds.No wind94%29.83 "HgN/A
4:00 PM77 °FLight rain. More clouds than sun.3 mph94%29.83 "Hg5 mi
3:00 PM75 °FLight rain. More clouds than sun.6 mph100%29.81 "Hg5 mi
2:00 PM77 °FHeavy rain. Partly sunny.7 mph100%29.86 "Hg1 mi
1:00 PM86 °FHeavy rain. Partly sunny.6 mph84%29.84 "Hg1 mi
12:00 PM90 °FScattered showers. Partly sunny.3 mph75%29.87 "HgN/A
10:00 AM86 °FScattered clouds.3 mph79%29.93 "HgN/A
9:00 AM82 °FBroken clouds.2 mph84%29.93 "HgN/A
8:00 AM81 °FScattered clouds.2 mph89%29.92 "HgN/A
7:00 AM77 °FPassing clouds.3 mph94%29.90 "HgN/A
6:00 AM75 °FSunny.No wind100%29.85 "Hg10 mi
5:00 AM75 °FPassing clouds.No wind100%29.82 "HgN/A
Weather by CustomWeather, © 2016

See weather overviewHow to use our weather pages